Time,TemperatureF,DewpointF,PressureIn,WindDirection,WindDirectionDegrees,WindSpeedMPH,WindSpeedGustMPH,Humidity,HourlyPrecipIn,Conditions,Clouds,dailyrainin,SoftwareType,DateUTC
2013-05-14 00:00:00,81.6,74.8,30.07,East,98,3.0,8.0,80,0.00,CLR,,0.00,WeatherDisplay:10.37,2013-05-14 06:00:00,
2013-05-14 00:15:00,81.4,74.7,30.07,East,100,2.0,10.0,80,0.00,CLR,,0.00,WeatherDisplay:10.37,2013-05-14 06:15:00,
2013-05-14 00:30:00,81.4,74.6,30.06,East,98,3.0,9.0,80,0.00,CLR,,0.00,WeatherDisplay:10.37,2013-05-14 06:30:00,
2013-05-14 00:45:00,81.4,74.6,30.06,East,100,2.0,9.0,80,0.00,CLR,,0.00,WeatherDisplay:10.37,2013-05-14 06:45:00,
2013-05-14 01:00:00,81.3,74.5,30.06,East,91,2.0,9.0,80,0.00,CLR,,0.00,WeatherDisplay:10.37,2013-05-14 07:00:00,
2013-05-14 01:15:00,81.3,74.6,30.06,East,93,7.0,12.0,80,0.00,CLR,,0.00,WeatherDisplay:10.37,2013-05-14 07:15:00,
2013-05-14 01:30:00,81.3,73.8,30.05,East,85,8.0,12.0,78,0.00,CLR,,0.00,WeatherDisplay:10.37,2013-05-14 07:30:00,
2013-05-14 01:45:00,81.2,74.1,30.04,East,90,8.0,12.0,79,0.00,CLR,,0.00,WeatherDisplay:10.37,2013-05-14 07:45:00,
2013-05-14 02:00:00,81.1,74.3,30.04,East,93,3.0,10.0,80,0.00,CLR,,0.00,WeatherDisplay:10.37,2013-05-14 08:00:00,
2013-05-14 02:15:00,81.1,73.9,30.04,East,93,3.0,11.0,79,0.00,CLR,,0.00,WeatherDisplay:10.37,2013-05-14 08:15:00,
2013-05-14 02:30:00,81.0,73.9,30.04,East,84,3.0,11.0,79,0.00,CLR,,0.00,WeatherDisplay:10.37,2013-05-14 08:30:00,
2013-05-14 02:45:00,80.8,73.6,30.03,East,79,3.0,11.0,79,0.00,CLR,,0.00,WeatherDisplay:10.37,2013-05-14 08:45:00,
2013-05-14 03:30:00,80.5,73.8,30.03,ENE,60,3.0,11.0,80,0.00,CLR,,0.00,WeatherDisplay:10.37,2013-05-14 09:30:00,
2013-05-14 03:45:00,80.5,74.1,30.03,ENE,62,3.0,11.0,81,0.00,CLR,,0.00,WeatherDisplay:10.37,2013-05-14 09:45:00,
2013-05-14 04:00:00,80.5,73.0,30.03,ENE,59,3.0,12.0,78,0.00,CLR,,0.00,WeatherDisplay:10.37,2013-05-14 10:00:00,
2013-05-14 04:15:00,80.6,73.1,30.03,ENE,61,2.0,11.0,78,0.00,CLR,,0.00,WeatherDisplay:10.37,2013-05-14 10:15:00,
2013-05-14 04:30:00,80.5,73.0,30.03,ENE,61,2.0,11.0,78,0.00,CLR,,0.00,WeatherDisplay:10.37,2013-05-14 10:30:00,
2013-05-14 04:45:00,80.5,73.4,30.03,ENE,62,3.0,11.0,79,0.00,CLR,,0.00,WeatherDisplay:10.37,2013-05-14 10:45:00,
2013-05-14 05:00:00,80.5,73.4,30.03,ENE,63,2.0,11.0,79,0.00,CLR,,0.00,WeatherDisplay:10.37,2013-05-14 11:00:00,
2013-05-14 05:15:00,80.5,73.8,30.03,ENE,62,5.0,11.0,80,0.00,CLR,,0.00,WeatherDisplay:10.37,2013-05-14 11:15:00,
2013-05-14 05:30:00,80.5,74.1,30.04,ENE,60,5.0,11.0,81,0.00,CLR,,0.00,WeatherDisplay:10.37,2013-05-14 11:30:00,
2013-05-14 05:45:00,80.7,74.0,30.04,ENE,71,2.0,11.0,80,0.00,CLR,,0.00,WeatherDisplay:10.37,2013-05-14 11:45:00,
2013-05-14 06:00:00,81.1,74.4,30.05,ENE,69,2.0,11.0,80,0.00,CLR,,0.00,WeatherDisplay:10.37,2013-05-14 12:00:00,
2013-05-14 06:15:00,81.8,75.0,30.05,ENE,71,3.0,11.0,80,0.00,CLR,,0.00,WeatherDisplay:10.37,2013-05-14 12:15:00,
2013-05-14 06:30:00,82.1,75.3,30.05,ENE,69,3.0,11.0,80,0.00,CLR,,0.00,WeatherDisplay:10.37,2013-05-14 12:30:00,
2013-05-14 06:45:00,82.8,74.5,30.05,ENE,59,2.0,11.0,76,0.00,CLR,,0.00,WeatherDisplay:10.37,2013-05-14 12:45:00,
2013-05-14 07:00:00,83.0,74.7,30.06,ENE,59,3.0,11.0,76,0.00,CLR,,0.00,WeatherDisplay:10.37,2013-05-14 13:00:00,
2013-05-14 07:15:00,83.7,74.9,30.06,ENE,77,5.0,11.0,75,0.00,CLR,,0.00,WeatherDisplay:10.37,2013-05-14 13:15:00,
2013-05-14 07:30:00,83.9,75.2,30.06,ENE,71,7.0,11.0,75,0.00,CLR,,0.00,WeatherDisplay:10.37,2013-05-14 13:30:00,
2013-05-14 07:45:00,84.4,74.8,30.07,East,80,3.0,11.0,73,0.00,CLR,,0.00,WeatherDisplay:10.37,2013-05-14 13:45:00,
2013-05-14 08:00:00,84.6,75.4,30.07,East,88,7.0,11.0,74,0.00,CLR,,0.00,WeatherDisplay:10.37,2013-05-14 14:00:00,
2013-05-14 08:15:00,84.8,74.8,30.08,ENE,65,5.0,11.0,72,0.00,CLR,,0.00,WeatherDisplay:10.37,2013-05-14 14:15:00,
2013-05-14 08:30:00,84.9,75.7,30.08,ENE,69,5.0,11.0,74,0.00,CLR,,0.00,WeatherDisplay:10.37,2013-05-14 14:30:00,
2013-05-14 08:45:00,85.2,76.0,30.08,ENE,78,7.0,11.0,74,0.00,CLR,,0.00,WeatherDisplay:10.37,2013-05-14 14:45:00,
2013-05-14 09:00:00,85.6,76.8,30.08,East,80,7.0,12.0,75,0.00,CLR,,0.00,WeatherDisplay:10.37,2013-05-14 15:00:00,
2013-05-14 09:15:00,86.2,77.4,30.08,ENE,64,5.0,12.0,75,0.00,CLR,,0.00,WeatherDisplay:10.37,2013-05-14 15:15:00,
2013-05-14 09:30:00,86.5,77.2,30.08,ENE,77,2.0,12.0,74,0.00,CLR,,0.00,WeatherDisplay:10.37,2013-05-14 15:30:00,
2013-05-14 09:45:00,86.5,76.8,30.08,ENE,74,7.0,12.0,73,0.00,CLR,,0.00,WeatherDisplay:10.37,2013-05-14 15:45:00,
2013-05-14 10:00:00,86.4,76.3,30.09,ENE,74,7.0,13.0,72,0.00,CLR,,0.00,WeatherDisplay:10.37,2013-05-14 16:00:00,
2013-05-14 10:15:00,87.0,76.9,30.09,NE,56,6.0,13.0,72,0.00,CLR,,0.00,WeatherDisplay:10.37,2013-05-14 16:15:00,
2013-05-14 10:30:00,84.4,76.0,30.09,NE,52,8.0,15.0,76,0.00,CLR,,0.00,WeatherDisplay:10.37,2013-05-14 16:30:00,
2013-05-14 10:45:00,86.5,76.0,30.09,ENE,72,8.0,16.0,71,0.00,CLR,,0.00,WeatherDisplay:10.37,2013-05-14 16:45:00,
2013-05-14 11:00:00,87.2,74.9,30.08,ENE,65,7.0,15.0,67,0.00,CLR,,0.00,WeatherDisplay:10.37,2013-05-14 17:00:00,
2013-05-14 11:15:00,87.8,75.0,30.08,ENE,63,7.0,13.0,66,0.00,CLR,,0.00,WeatherDisplay:10.37,2013-05-14 17:15:00,
2013-05-14 11:30:00,87.2,75.8,30.08,ENE,64,8.0,15.0,69,0.00,CLR,,0.00,WeatherDisplay:10.37,2013-05-14 17:30:00,
2013-05-14 11:45:00,87.6,75.3,30.07,ENE,57,6.0,14.0,67,0.00,CLR,,0.00,WeatherDisplay:10.37,2013-05-14 17:45:00,
2013-05-14 12:00:00,87.4,76.0,30.07,ENE,66,6.0,15.0,69,0.00,CLR,,0.00,WeatherDisplay:10.37,2013-05-14 18:00:00,
2013-05-14 12:15:00,87.4,76.0,30.06,ENE,74,8.0,13.0,69,0.00,CLR,,0.00,WeatherDisplay:10.37,2013-05-14 18:15:00,
2013-05-14 12:30:00,87.2,75.8,30.05,ENE,73,9.0,15.0,69,0.00,CLR,,0.00,WeatherDisplay:10.37,2013-05-14 18:30:00,
2013-05-14 12:45:00,84.6,76.2,30.05,ENE,66,8.0,15.0,76,0.00,CLR,,0.00,WeatherDisplay:10.37,2013-05-14 18:45:00,
2013-05-14 13:00:00,86.5,76.4,30.05,ENE,77,8.0,15.0,72,0.00,CLR,,0.00,WeatherDisplay:10.37,2013-05-14 19:00:00,
2013-05-14 13:15:00,87.5,76.5,30.05,ENE,71,6.0,15.0,70,0.00,CLR,,0.00,WeatherDisplay:10.37,2013-05-14 19:15:00,
2013-05-14 13:30:00,87.2,76.2,30.04,ENE,65,8.0,16.0,70,0.00,CLR,,0.00,WeatherDisplay:10.37,2013-05-14 19:30:00,
2013-05-14 13:45:00,87.0,76.0,30.04,ENE,63,6.0,15.0,70,0.00,CLR,,0.00,WeatherDisplay:10.37,2013-05-14 19:45:00,
2013-05-14 14:00:00,86.7,75.3,30.04,ENE,61,9.0,16.0,69,0.00,CLR,,0.00,WeatherDisplay:10.37,2013-05-14 20:00:00,
2013-05-14 14:15:00,86.7,75.3,30.04,ENE,59,8.0,18.0,69,0.00,CLR,,0.00,WeatherDisplay:10.37,2013-05-14 20:15:00,
2013-05-14 14:30:00,86.0,75.1,30.04,NE,56,9.0,16.0,70,0.00,CLR,,0.00,WeatherDisplay:10.37,2013-05-14 20:30:00,
2013-05-14 14:45:00,86.4,75.4,30.04,ENE,62,6.0,18.0,70,0.00,CLR,,0.00,WeatherDisplay:10.37,2013-05-14 20:45:00,
2013-05-14 15:00:00,86.6,76.0,30.03,NE,55,9.0,14.0,71,0.00,CLR,,0.00,WeatherDisplay:10.37,2013-05-14 21:00:00,
2013-05-14 15:15:00,86.3,75.3,30.03,East,79,3.0,15.0,70,0.00,CLR,,0.00,WeatherDisplay:10.37,2013-05-14 21:15:00,
2013-05-14 15:30:00,86.0,75.1,30.03,ENE,68,6.0,14.0,70,0.00,CLR,,0.00,WeatherDisplay:10.37,2013-05-14 21:30:00,
2013-05-14 15:45:00,85.6,75.9,30.03,ENE,65,9.0,14.0,73,0.00,CLR,,0.00,WeatherDisplay:10.37,2013-05-14 21:45:00,
2013-05-14 16:00:00,85.6,76.3,30.03,ENE,75,6.0,14.0,74,0.00,CLR,,0.00,WeatherDisplay:10.37,2013-05-14 22:00:00,
2013-05-14 16:15:00,85.2,75.6,30.03,ENE,72,8.0,15.0,73,0.00,CLR,,0.00,WeatherDisplay:10.37,2013-05-14 22:15:00,
2013-05-14 16:26:00,85.0,74.6,30.03,ENE,76,7.0,13.0,71,0.00,CLR,,0.00,WeatherDisplay:10.37,2013-05-14 22:26:00,
2013-05-14 16:45:00,84.8,74.8,30.03,ENE,75,7.0,15.0,72,0.00,CLR,,0.00,WeatherDisplay:10.37,2013-05-14 22:45:00,
2013-05-14 17:00:00,84.5,74.9,30.03,ENE,72,8.0,14.0,73,0.00,CLR,,0.00,WeatherDisplay:10.37,2013-05-14 23:00:00,
2013-05-14 17:15:00,83.8,75.4,30.03,ENE,67,7.0,14.0,76,0.00,CLR,,0.00,WeatherDisplay:10.37,2013-05-14 23:15:00,
2013-05-14 17:30:00,83.4,75.9,30.03,ENE,60,7.0,13.0,78,0.00,CLR,,0.00,WeatherDisplay:10.37,2013-05-14 23:30:00,
2013-05-14 17:45:00,83.0,75.8,30.03,ENE,68,7.0,14.0,79,0.00,CLR,,0.00,WeatherDisplay:10.37,2013-05-14 23:45:00,
2013-05-14 18:00:00,82.7,75.1,30.04,ENE,74,5.0,15.0,78,0.00,CLR,,0.00,WeatherDisplay:10.37,2013-05-15 00:00:00,
2013-05-14 18:15:00,82.5,74.9,30.04,ENE,69,7.0,14.0,78,0.00,CLR,,0.00,WeatherDisplay:10.37,2013-05-15 00:15:00,
2013-05-14 18:30:00,82.5,75.7,30.04,ENE,70,6.0,13.0,80,0.00,CLR,,0.00,WeatherDisplay:10.37,2013-05-15 00:30:00,
2013-05-14 18:45:00,82.3,75.9,30.04,ENE,70,6.0,13.0,81,0.00,CLR,,0.00,WeatherDisplay:10.37,2013-05-15 00:45:00,
2013-05-14 19:00:00,82.2,75.8,30.04,East,85,8.0,13.0,81,0.00,CLR,,0.00,WeatherDisplay:10.37,2013-05-15 01:00:00,
2013-05-14 19:15:00,82.1,75.3,30.05,ENE,78,6.0,12.0,80,0.00,CLR,,0.00,WeatherDisplay:10.37,2013-05-15 01:15:00,
2013-05-14 19:30:00,82.1,75.3,30.05,East,86,8.0,13.0,80,0.00,CLR,,0.00,WeatherDisplay:10.37,2013-05-15 01:30:00,
2013-05-14 19:45:00,82.1,75.7,30.06,East,84,8.0,14.0,81,0.00,CLR,,0.00,WeatherDisplay:10.37,2013-05-15 01:45:00,
2013-05-14 20:00:00,82.1,75.3,30.06,East,83,10.0,13.0,80,0.00,CLR,,0.00,WeatherDisplay:10.37,2013-05-15 02:00:00,
2013-05-14 20:15:00,82.2,75.4,30.07,East,86,10.0,13.0,80,0.00,CLR,,0.00,WeatherDisplay:10.37,2013-05-15 02:15:00,
2013-05-14 20:30:00,82.1,75.3,30.06,East,91,10.0,13.0,80,0.00,CLR,,0.00,WeatherDisplay:10.37,2013-05-15 02:30:00,
2013-05-14 20:45:00,82.0,75.6,30.06,East,89,9.0,13.0,81,0.00,CLR,,0.00,WeatherDisplay:10.37,2013-05-15 02:45:00,
2013-05-14 21:00:00,82.0,76.0,30.07,ENE,73,6.0,14.0,82,0.00,CLR,,0.00,WeatherDisplay:10.37,2013-05-15 03:00:00,
2013-05-14 21:15:00,81.9,76.2,30.07,ENE,57,3.0,13.0,83,0.00,CLR,,0.00,WeatherDisplay:10.37,2013-05-15 03:15:00,
2013-05-14 21:30:00,81.7,76.0,30.08,ENE,67,6.0,10.0,83,0.00,CLR,,0.00,WeatherDisplay:10.37,2013-05-15 03:30:00,
2013-05-14 21:45:00,81.8,76.8,30.08,ENE,73,3.0,12.0,85,0.00,CLR,,0.00,WeatherDisplay:10.37,2013-05-15 03:45:00,
2013-05-14 22:00:00,81.3,76.0,30.08,ENE,75,3.0,12.0,84,0.00,CLR,,0.00,WeatherDisplay:10.37,2013-05-15 04:00:00,
2013-05-14 22:15:00,81.5,76.9,30.08,ENE,67,5.0,10.0,86,0.00,CLR,,0.00,WeatherDisplay:10.37,2013-05-15 04:15:00,
2013-05-14 22:30:00,81.3,76.0,30.08,East,83,6.0,13.0,84,0.00,CLR,,0.00,WeatherDisplay:10.37,2013-05-15 04:30:00,
2013-05-14 22:45:00,81.7,76.0,30.08,East,94,8.0,14.0,83,0.00,CLR,,0.00,WeatherDisplay:10.37,2013-05-15 04:45:00,
2013-05-14 23:00:00,81.8,76.1,30.08,East,92,9.0,14.0,83,0.00,CLR,,0.00,WeatherDisplay:10.37,2013-05-15 05:00:00,
2013-05-14 23:15:00,81.7,76.0,30.07,East,95,5.0,13.0,83,0.00,CLR,,0.00,WeatherDisplay:10.37,2013-05-15 05:15:00,
2013-05-14 23:30:00,81.6,76.3,30.07,East,86,5.0,13.0,84,0.00,CLR,,0.00,WeatherDisplay:10.37,2013-05-15 05:30:00,
2013-05-14 23:45:00,81.6,75.2,30.07,East,85,12.0,14.0,81,0.00,CLR,,0.00,WeatherDisplay:10.37,2013-05-15 05:45:00,